Погода в Смоленске

Хотите узнать прогноз погоды в Смоленске? Тогда Вам сюда: Погода в Смоленске

Поиск расширенной информации на нашем сайте:

Полезная информация:

Новости сайта



02.01.2020
Опубликован Долгосрочный прогноз погоды по городам России и ближнего зарубежья на январь 2020 года.
Карты: Прогноз на январь и февраль 2020 года, Сравнение прогнозируемой аномалии приземной температуры воздуха на январь 2020 года по разным моделям.




Погода в Смоленске - сегодня

Время (UTC), дата Ветер
(°,м/с) 
Видим.   Явления Облачность Т
(°С)
Тd
(°С)
f(%) Тe
(°С)
Pmin
(гПа)
dP
(гПа)
Po
(мм)
O2
(г/м3)
Тmin Tmax R s Состояние
почвы
03 05.03.21 300 (СЗ) 10 км    4/0 средняя 
[Ac trans]
-4.1 -5.9 87 -5  1009.7  1.3  735  301  -4.1    0.0     
06 05.03.21 300 (СЗ) 10 км    6/6 600 м 
[Sc]
-4.4 -7.7 78 -6  1011.1  1.3  736  302  -4.5      16  равномерный
мокрый или
старый снег
100% 
09 05.03.21 290 (З) 10 км    8/4 600 м средняя 
[Sc|Ac trans]
-1.3 -9.4 54 -2  1011.6  0.8  736  299           
12 05.03.21 310 (СЗ) 10 км  в посл. час ливневой снег  8/8 600 м кучево-дожд. 
[Cb cap]
-1.9 -7 68 -4  1012.4  0.7  737  300           
15 05.03.21 270 (З) 20000 м  {ливн. осадки}  3/3 600 м 
[Sc diur, vesp]
-2.4 -10.6 53 -2  1013.6  738  301      0.5     
18 05.03.21 290 (З) 10 км  {ливн. осадки}  8/8 600 м 
[Sc]
-4 -7.5 77 -5  1016.1  2.3  739  303    +0.2  0.5     
21 05.03.21 310 (СЗ) 10 км    ясно 
-5.3 -6.9 88 -5  1018.3  741  305           
00 06.03.21 280 (З) 10 км    ясно 
-7.8 -8.6 94 -8  1019.8  1.1  742  308           
03 06.03.21 260 (З) 4000 м  дымка  ясно 
-10.1 -10.7 95 -10  1020.4  0.3  742  311  -10.1         
06 06.03.21 280 (З) 4000 м  дымка  ясно 
-8.6 -9.9 90 -8  1021.1  0.8  743  310  -10.9      16  равномерный
сухой снег
100% 
09 06.03.21 330 (СЗ) 10 км  в посл. час ливневой снег  8/6 600 м кучево-дожд., верхняя 
[Cb cap|Ci fib]
-3.7 -10.2 61 -5  1020.9  0.4  743  304           
12 06.03.21 290 (З) 10 км  {ливн. осадки}  9/9 300 м кучево-дожд. 
[Cb cap]
-3.1 -11.9 51 -4  1020  -0.8  742  304           
15 06.03.21 280 (З) 10 км  {ливн. осадки}  8/5 600 м верхняя 
[Sc diur, vesp|Ci fib]
-3.6 -12.7 49 -5  1018.9  -1.2  741  304      0.0     
18 06.03.21 220 (ЮЗ) 10 км  {ливн. осадки}  ясно 
-7.2 -12.1 68 -7  1018.1  -1.1  740  308    -2.8  0.0     
21 06.03.21 220 (ЮЗ) 10 км    10/10 600 м 
[Sc]
-5.1 -11.5 61 -6  1014.6  -3.2  738  304           
00 07.03.21 230 (ЮЗ) 3{10}  4000 м  слаб. снег  10/10 200 м 
[Frnb|Ns]
-3.9 -6.5 82 -6  1009.7  -4.5  735  301           
03 07.03.21 230 (ЮЗ) 4{11}  4000 м  слаб. снег  10/10 200 м 
[Frnb|Ns]
-3 -6.9 74 -6  1004.5  -4.9  731  298  -7.3    0.3     
06 07.03.21 220 (ЮЗ) 3{12}  0500 м  метель{снег}  ?/?  
-3.2 -3.9 95 -5  1000.2  -4.1  728  297  -7.3    16  равномерный
сухой снег
100% 
09 07.03.21 250 (З) 4-11{12}  2000 м  снег  10/10 200 м 
[Frnb|Ns]
-2 -2.9 94 -5  996.5  -3.2  725  295           
12 07.03.21 280 (З) 3-11{12}  2000 м  снег  10/10 200 м 
[Frnb|Ns]
-1.9 -3.4 89 -4  998.2  1.4  726  295           
15 07.03.21 290 (З) 4-12{15}  10 км  позёмок{снег}  5/5 600 м 
[Sc]
-2.5 -9.3 60 -5  999.2  0.9  727  297         
18 07.03.21 270 (З) 4{14}  10 км  позёмок{снег}  9/9 600 м 
[Sc]
-3.3 -6.2 80 -6  1000.4  728  297    -1     
21 07.03.21 270 (З) 10 км    9/9 600 м 
[Sc]
-3.9 -6.6 81 -5  1000.6  0.2  728  298           
00 08.03.21 280 (З) 10 км    8/8 600 м 
[Sc]
-4.4 -7.9 77 -6  1001.3  0.6  728  299           
03 08.03.21 280 (З) 4000 м  слаб. снег  10/10 300 м 
[Sc]
-5.1 -7.1 86 -6  1001.8  0.4  729  300  -5.1    0.0     
Время (UTC), дата Ветер
(°,м/с) 
Видим.   Явления Облачность Т
(°С)
Тd
(°С)
f(%) Тe
(°С)
Pmin
(гПа)
dP
(гПа)
Po
(мм)
O2
(г/м3)
Тmin Tmax R s Состояние
почвы

Для получения пояснительной информации подведите курсор к названию столбца.

ПОГОДА в Смоленске - архив

Всё, что Вы хотите узнать о погоде в Смоленске - удобно и подробно!

Выберите нужную дату (начиная с 1 января 2019* года) и нажмите кнопку "Найти".
Будут отображены архивные сводки погоды по пункту Смоленск, начиная с указанной даты.


Отображать данные в формате CSV (для использования в таблицах Excel)


Внимание! Наш архив погоды предназначен исключительно для личного некоммерческого использования в познавательных целях. Если Вам необходимы официальные справки о состоянии погоды (для производственных, юридических, коммерческих и т.п. целей), обращайтесь в органы Росгидромета.

*Примечание: данная дата относится к архиву по метеостанциям СССР (Россия, СНГ, Балтия).
Архив по метеостанциям Зарубежной Европы и Азии (кроме Китая) хранится 10 дней, по другим регионам земного шара (Китай, Африка, Америка, Австралия, Океания) - 1 день.

Смоленск - район местоположения метеостанции


Название, широта, долгота, высота метеостанции:
Смоленск 54.8°ш. 32.1°д. 239 м над ур. моря [Российская Федерация]

Дополнительная информация

В oтличие oт бoльшинства пoгoдных сайтoв мы публикуем пoдрoбную метеoинфoрмацию в детальнoм прoфессиoнальнoм фoрмате.

Характеристики температуры и влажнoсти вoздуха измеряются на высoте 2 м в тени вдали oт зданий и деревьев.
Скoрoсть ветра измеряется на высoте 10 м (на урoвне рoста челoвека скoрoсть ветра ниже в 1.5-2 раза). Если метеoстанция нахoдится в гoрoде или в лесу, тo скoрoсть ветра занижена на 2-4 м/с пo сравнению с oткрытым местoм. Скoрoсть ветра над акватoриями крупных рек и oзёр, а также на вершинах хoлмoв на 2-5 м/с выше, чем в oбычных услoвиях.
Атмoсфернoе давление в разных тoчках местнoсти мoжет значительнo oтличаться oт давления на метеoстанции, в зависимoсти oт услoвий рельефа (при пoдъёме на 10 м давление пoнижается примернo на 1 мм рт.ст.).